Weather History for Missoula, MT

Change the Weather History Date:

Friday, April 12, 2013

  Actual Average Record
Temperature  
Mean Temperature 44 °F 45 °F  
Max Temperature 55 °F 58 °F 80 °F (1913)
Min Temperature 32 °F 32 °F 18 °F (1997)
Degree Days  
Heating Degree Days 21 20  
Month to date heating degree days 239 254  
Since 1 July heating degree days 6055 6437  
Cooling Degree Days 0 0  
Month to date cooling degree days 0 0  
Year to date cooling degree days 0 0  
Moisture  
Dew Point 26 °F    
Average Humidity 55    
Maximum Humidity 82    
Minimum Humidity 27    
Precipitation  
Precipitation T in 0.04 in 0.50 in (1917)
Month to date precipitation 0.17 0.48  
Year to date precipitation 2.23 3.03  
Snow  
Snow T in - - ()
Month to date snowfall T  
Year to date snowfall 22.6  
Since 1 July snowfall 43.7  
Snow Depth 0.00 in    
Sea Level Pressure  
Sea Level Pressure 29.95 in    
Wind  
Wind Speed 5 mph (SE)    
Max Wind Speed 21 mph    
Max Gust Speed 26 mph    
Visibility 10 miles    
Events      
T = Trace of Precipitation, MM = Missing Value Source: NWS Daily Summary

Daily Weather History Graph

Daily Weather History Graph

Search for Another Location

Airport:

Trip Planner

Search our weather history database for the weather conditions in past years. The results will help you decide how hot, cold, wet, or windy it might be!

Date:

Astronomy

Apr. 12, 2013 Rise Set
Actual Time 6:53 AM MDT 8:21 PM MDT
Civil Twilight 6:22 AM MDT 8:52 PM MDT
Nautical Twilight 5:43 AM MDT 9:31 PM MDT
Astronomical Twilight 5:02 AM MDT 10:12 PM MDT
Moon 7:57 AM MDT (4/12) 11:05 PM MDT (4/12)
Length of Visible Light 14h 30m
Length of Day
13h 27m
Waxing Crescent, 5% of the Moon is Illuminated
Apr 12
Waxing Crescent
Apr 18
First Quarter
Apr 25
Full
May 2
Last Quarter
May 9
New

Hourly Weather History & Observations

Time (MDT) Temp. Windchill Dew Point Humidity Pressure Visibility Wind Dir Wind Speed Gust Speed Precip Events Conditions
12:53 AM 36.0 °F 33.3 °F 28.0 °F 73% 30.12 in 10.0 mi WNW 3.5 mph - N/A   Scattered Clouds
1:53 AM 35.1 °F 30.1 °F 27.0 °F 72% 30.11 in 10.0 mi NNW 5.8 mph - N/A   Partly Cloudy
2:53 AM 35.1 °F 32.2 °F 28.0 °F 76% 30.11 in 10.0 mi East 3.5 mph - N/A   Overcast
3:23 AM 35.6 °F - 28.4 °F 75% 30.07 in 10.0 mi Calm Calm - N/A   Overcast
3:53 AM 35.1 °F 32.2 °F 28.0 °F 76% 30.12 in 10.0 mi South 3.5 mph - N/A   Overcast
4:53 AM 36.0 °F - 28.0 °F 73% 30.12 in 10.0 mi Calm Calm - N/A   Overcast
5:53 AM 35.1 °F - 30.0 °F 82% 30.12 in 10.0 mi Calm Calm - 0.00 in   Overcast
6:53 AM 34.0 °F 31.0 °F 28.0 °F 79% 30.12 in 10.0 mi South 3.5 mph - N/A   Overcast
7:53 AM 35.1 °F 32.2 °F 28.9 °F 78% 30.14 in 10.0 mi SSE 3.5 mph - N/A   Overcast
8:53 AM 36.0 °F 33.3 °F 28.9 °F 76% 30.14 in 10.0 mi SE 3.5 mph - N/A   Mostly Cloudy
9:53 AM 39.9 °F 35.8 °F 28.0 °F 63% 30.12 in 10.0 mi SSE 5.8 mph - N/A   Clear
10:53 AM 42.1 °F 38.4 °F 26.1 °F 53% 30.09 in 10.0 mi ESE 5.8 mph - N/A   Overcast
11:53 AM 46.9 °F - 25.0 °F 42% 30.05 in 10.0 mi ENE 6.9 mph - N/A   Scattered Clouds
12:53 PM 48.0 °F - 24.1 °F 39% 30.02 in 10.0 mi SE 5.8 mph - N/A   Partly Cloudy
1:53 PM 50.0 °F - 23.0 °F 35% 29.96 in 10.0 mi ENE 8.1 mph - N/A   Partly Cloudy
2:53 PM 53.1 °F - 24.1 °F 32% 29.92 in 10.0 mi Calm Calm - N/A   Clear
3:53 PM 53.1 °F - 21.9 °F 30% 29.87 in 10.0 mi Calm Calm - N/A   Clear
4:53 PM 55.0 °F - 23.0 °F 29% 29.82 in 10.0 mi Variable 4.6 mph - N/A   Scattered Clouds
5:53 PM 54.0 °F - 21.9 °F 29% 29.78 in 10.0 mi Calm Calm - N/A   Mostly Cloudy
6:53 PM 54.0 °F - 21.9 °F 29% 29.74 in 10.0 mi ESE 3.5 mph - N/A   Scattered Clouds
7:53 PM 52.0 °F - 25.0 °F 35% 29.70 in 10.0 mi SE 3.5 mph - N/A   Scattered Clouds
8:53 PM 51.1 °F - 23.0 °F 33% 29.69 in 10.0 mi North 4.6 mph - N/A   Overcast
9:53 PM 50.0 °F - 26.1 °F 39% 29.68 in 10.0 mi West 18.4 mph - N/A   Overcast
10:53 PM 48.0 °F - 28.0 °F 46% 29.66 in 10.0 mi WSW 8.1 mph - N/A   Overcast
11:53 PM 46.0 °F 41.4 °F 30.0 °F 54% 29.60 in 10.0 mi NNW 9.2 mph - N/A   Overcast